Time,TemperatureF,DewpointF,PressureIn,WindDirection,WindDirectionDegrees,WindSpeedMPH,WindSpeedGustMPH,Humidity,HourlyPrecipIn,Conditions,Clouds,dailyrainin,SoftwareType,DateUTC
2013-02-08 00:01:00,33.0,30.0,30.03,North,360,0.0,0.0,90,0.00,,,-99.99,,2013-02-08 07:01:00,
2013-02-08 00:11:00,33.0,31.0,30.02,North,360,0.0,0.0,92,0.00,,,-99.99,,2013-02-08 07:11:00,
2013-02-08 00:21:00,33.0,31.0,30.02,North,360,0.0,0.0,92,0.00,,,-99.99,,2013-02-08 07:21:00,
2013-02-08 00:32:00,33.0,31.0,30.02,North,360,0.0,0.0,92,0.00,,,-99.99,,2013-02-08 07:32:00,
2013-02-08 00:42:00,33.0,31.0,30.02,North,360,0.0,0.0,92,0.00,,,-99.99,,2013-02-08 07:42:00,
2013-02-08 00:52:00,33.0,31.0,30.02,North,360,0.0,0.0,92,0.00,,,-99.99,,2013-02-08 07:52:00,
2013-02-08 01:01:00,33.0,31.0,30.02,North,360,0.0,0.0,92,0.00,,,-99.99,,2013-02-08 08:01:00,
2013-02-08 01:11:00,32.0,30.0,30.01,North,360,0.0,0.0,94,0.00,,,-99.99,,2013-02-08 08:11:00,
2013-02-08 01:21:00,32.0,30.0,30.01,North,360,0.0,0.0,94,0.00,,,-99.99,,2013-02-08 08:21:00,
2013-02-08 01:32:00,32.0,31.0,30.01,North,360,0.0,0.0,96,0.00,,,-99.99,,2013-02-08 08:32:00,
2013-02-08 01:41:00,32.0,31.0,30.01,North,360,0.0,0.0,96,0.00,,,-99.99,,2013-02-08 08:41:00,
2013-02-08 01:52:00,33.0,32.0,29.99,North,360,0.0,0.0,95,0.00,,,-99.99,,2013-02-08 08:52:00,
2013-02-08 02:02:00,34.0,32.0,29.99,North,360,0.0,0.0,94,0.00,,,-99.99,,2013-02-08 09:02:00,
2013-02-08 02:11:00,34.0,32.0,29.99,North,360,0.0,0.0,94,0.00,,,-99.99,,2013-02-08 09:11:00,
2013-02-08 02:21:00,35.0,33.0,29.98,North,360,0.0,0.0,92,0.00,,,-99.99,,2013-02-08 09:21:00,
2013-02-08 02:31:00,35.0,33.0,29.98,North,360,0.0,0.0,91,0.00,,,-99.99,,2013-02-08 09:31:00,
2013-02-08 02:42:00,35.0,33.0,29.98,North,360,0.0,0.0,91,0.00,,,-99.99,,2013-02-08 09:42:00,
2013-02-08 02:52:00,35.0,32.0,29.98,North,360,0.0,0.0,89,0.00,,,-99.99,,2013-02-08 09:52:00,
2013-02-08 03:01:00,35.0,32.0,29.98,North,360,0.0,0.0,89,0.00,,,-99.99,,2013-02-08 10:01:00,
2013-02-08 03:11:00,35.0,32.0,29.98,North,360,0.0,0.0,89,0.00,,,-99.99,,2013-02-08 10:11:00,
2013-02-08 03:21:00,35.0,32.0,29.96,North,360,0.0,0.0,89,0.00,,,-99.99,,2013-02-08 10:21:00,
2013-02-08 03:31:00,35.0,32.0,29.96,North,360,0.0,0.0,90,0.00,,,-99.99,,2013-02-08 10:31:00,
2013-02-08 03:41:00,35.0,32.0,29.96,North,360,0.0,0.0,90,0.00,,,-99.99,,2013-02-08 10:41:00,
2013-02-08 03:51:00,35.0,32.0,29.96,North,360,0.0,0.0,90,0.00,,,-99.99,,2013-02-08 10:51:00,
2013-02-08 04:01:00,34.0,31.0,29.95,North,360,0.0,0.0,89,0.00,,,-99.99,,2013-02-08 11:01:00,
2013-02-08 04:11:00,34.0,31.0,29.95,North,360,0.0,0.0,89,0.00,,,-99.99,,2013-02-08 11:11:00,
2013-02-08 04:21:00,34.0,31.0,29.94,North,360,0.0,0.0,89,0.00,,,-99.99,,2013-02-08 11:21:00,
2013-02-08 04:32:00,35.0,32.0,29.93,North,360,0.0,0.0,87,0.00,,,-99.99,,2013-02-08 11:32:00,
2013-02-08 04:41:00,35.0,32.0,29.93,North,360,0.0,0.0,87,0.00,,,-99.99,,2013-02-08 11:41:00,
2013-02-08 04:52:00,34.0,31.0,29.93,North,360,0.0,0.0,87,0.00,,,-99.99,,2013-02-08 11:52:00,
2013-02-08 05:01:00,34.0,31.0,29.92,North,360,0.0,0.0,87,0.00,,,-99.99,,2013-02-08 12:01:00,
2013-02-08 05:11:00,34.0,31.0,29.92,North,360,0.0,0.0,87,0.00,,,-99.99,,2013-02-08 12:11:00,
2013-02-08 05:21:00,35.0,31.0,29.92,North,360,0.0,0.0,86,0.00,,,-99.99,,2013-02-08 12:21:00,
2013-02-08 05:32:00,35.0,31.0,29.92,North,360,0.0,0.0,86,0.00,,,-99.99,,2013-02-08 12:32:00,
2013-02-08 05:41:00,35.0,31.0,29.92,North,360,0.0,0.0,86,0.00,,,-99.99,,2013-02-08 12:41:00,
2013-02-08 05:52:00,35.0,31.0,29.92,North,360,0.0,0.0,85,0.00,,,-99.99,,2013-02-08 12:52:00,
2013-02-08 06:01:00,35.0,30.0,29.91,North,360,0.0,0.0,83,0.00,,,-99.99,,2013-02-08 13:01:00,
2013-02-08 06:11:00,35.0,30.0,29.91,North,360,0.0,0.0,83,0.00,,,-99.99,,2013-02-08 13:11:00,
2013-02-08 06:21:00,35.0,30.0,29.91,North,360,0.0,0.0,83,0.00,,,-99.99,,2013-02-08 13:21:00,
2013-02-08 06:32:00,35.0,29.0,29.91,North,360,0.0,0.0,79,0.00,,,-99.99,,2013-02-08 13:32:00,
2013-02-08 06:42:00,35.0,29.0,29.91,North,360,0.0,0.0,79,0.00,,,-99.99,,2013-02-08 13:42:00,
2013-02-08 06:52:00,35.0,29.0,29.91,North,360,0.0,0.0,79,0.00,,,-99.99,,2013-02-08 13:52:00,
2013-02-08 07:01:00,35.0,29.0,29.91,North,360,0.0,0.0,79,0.00,,,-99.99,,2013-02-08 14:01:00,
2013-02-08 07:21:00,36.0,29.0,29.89,North,360,0.0,0.0,77,0.00,,,-99.99,,2013-02-08 14:21:00,
2013-02-08 07:32:00,36.0,29.0,29.90,North,360,0.0,0.0,77,0.00,,,-99.99,,2013-02-08 14:32:00,
2013-02-08 07:41:00,36.0,29.0,29.90,North,360,0.0,0.0,77,0.00,,,-99.99,,2013-02-08 14:41:00,
2013-02-08 07:50:00,36.0,31.0,29.89,North,360,0.0,0.0,81,0.00,,,-99.99,,2013-02-08 14:50:00,
2013-02-08 07:52:00,36.0,30.0,29.89,North,360,0.0,0.0,78,0.00,,,-99.99,,2013-02-08 14:52:00,
2013-02-08 08:01:00,36.0,30.0,29.89,North,360,0.0,0.0,80,0.00,,,-99.99,,2013-02-08 15:01:00,
2013-02-08 08:11:00,36.0,30.0,29.89,North,360,0.0,0.0,80,0.00,,,-99.99,,2013-02-08 15:11:00,
2013-02-08 08:21:00,36.0,31.0,29.89,North,360,0.0,0.0,81,0.00,,,-99.99,,2013-02-08 15:21:00,
2013-02-08 08:31:00,36.0,31.0,29.89,North,360,0.0,0.0,81,0.00,,,-99.99,,2013-02-08 15:31:00,
2013-02-08 08:41:00,36.0,31.0,29.89,North,360,0.0,0.0,81,0.00,,,-99.99,,2013-02-08 15:41:00,
2013-02-08 09:01:00,35.0,32.0,29.89,North,360,0.0,0.0,87,0.02,,,-99.99,,2013-02-08 16:01:00,
2013-02-08 09:11:00,35.0,32.0,29.89,North,360,0.0,0.0,87,0.02,,,-99.99,,2013-02-08 16:11:00,
2013-02-08 09:21:00,35.0,33.0,29.88,North,360,0.0,0.0,91,0.04,,,-99.99,,2013-02-08 16:21:00,
2013-02-08 09:32:00,35.0,32.0,29.89,North,360,0.0,0.0,89,0.03,,,-99.99,,2013-02-08 16:32:00,
2013-02-08 09:41:00,35.0,32.0,29.89,North,360,0.0,0.0,89,0.03,,,-99.99,,2013-02-08 16:41:00,
2013-02-08 09:52:00,35.0,32.0,29.89,North,360,0.0,0.0,89,0.03,,,-99.99,,2013-02-08 16:52:00,
2013-02-08 10:01:00,37.0,32.0,29.88,North,360,0.0,0.0,83,0.01,,,-99.99,,2013-02-08 17:01:00,
2013-02-08 10:11:00,37.0,32.0,29.88,North,360,0.0,0.0,83,0.01,,,-99.99,,2013-02-08 17:11:00,
2013-02-08 10:21:00,36.0,30.0,29.88,North,360,0.0,0.0,78,0.00,,,-99.99,,2013-02-08 17:21:00,
2013-02-08 10:32:00,36.0,30.0,29.88,North,360,0.0,0.0,78,0.00,,,-99.99,,2013-02-08 17:32:00,
2013-02-08 10:41:00,36.0,30.0,29.88,North,360,0.0,0.0,78,0.00,,,-99.99,,2013-02-08 17:41:00,
2013-02-08 10:52:00,36.0,30.0,29.88,North,360,0.0,0.0,78,0.00,,,-99.99,,2013-02-08 17:52:00,
2013-02-08 11:01:00,37.0,28.0,29.88,North,360,0.0,0.0,70,0.01,,,-99.99,,2013-02-08 18:01:00,
2013-02-08 11:12:00,37.0,28.0,29.88,North,360,0.0,0.0,70,0.01,,,-99.99,,2013-02-08 18:12:00,
2013-02-08 11:23:00,38.0,29.0,29.87,North,360,0.0,0.0,69,0.01,,,-99.99,,2013-02-08 18:23:00,
2013-02-08 11:33:00,39.0,28.0,29.86,North,360,0.0,0.0,65,0.01,,,-99.99,,2013-02-08 18:33:00,
2013-02-08 11:42:00,39.0,28.0,29.86,North,360,0.0,0.0,65,0.01,,,-99.99,,2013-02-08 18:42:00,
2013-02-08 11:52:00,39.0,27.0,29.86,North,360,0.0,0.0,62,0.02,,,-99.99,,2013-02-08 18:52:00,
2013-02-08 12:01:00,39.0,27.0,29.87,North,360,0.0,0.0,62,0.04,,,-99.99,,2013-02-08 19:01:00,
2013-02-08 12:11:00,39.0,27.0,29.87,North,360,0.0,0.0,62,0.04,,,-99.99,,2013-02-08 19:11:00,
2013-02-08 12:21:00,39.0,27.0,29.87,North,360,0.0,0.0,62,0.04,,,-99.99,,2013-02-08 19:21:00,
2013-02-08 12:32:00,39.0,27.0,29.87,North,360,0.0,0.0,62,0.04,,,-99.99,,2013-02-08 19:32:00,
2013-02-08 12:41:00,39.0,27.0,29.87,North,360,0.0,0.0,62,0.04,,,-99.99,,2013-02-08 19:41:00,
2013-02-08 12:52:00,39.0,28.0,29.85,North,360,0.0,0.0,64,0.04,,,-99.99,,2013-02-08 19:52:00,
2013-02-08 13:01:00,39.0,28.0,29.85,North,360,0.0,0.0,64,0.04,,,-99.99,,2013-02-08 20:01:00,
2013-02-08 13:11:00,39.0,28.0,29.85,North,360,0.0,0.0,64,0.04,,,-99.99,,2013-02-08 20:11:00,
2013-02-08 13:21:00,39.0,28.0,29.85,North,360,0.0,0.0,64,0.04,,,-99.99,,2013-02-08 20:21:00,
2013-02-08 13:31:00,38.0,27.0,29.83,North,360,0.0,0.0,64,0.09,,,-99.99,,2013-02-08 20:31:00,
2013-02-08 13:42:00,38.0,27.0,29.83,North,360,0.0,0.0,64,0.09,,,-99.99,,2013-02-08 20:42:00,
2013-02-08 13:52:00,38.0,25.0,29.83,North,360,0.0,0.0,60,0.13,,,-99.99,,2013-02-08 20:52:00,
2013-02-08 14:01:00,37.0,26.0,29.83,North,360,0.0,0.0,64,0.12,,,-99.99,,2013-02-08 21:01:00,
2013-02-08 14:11:00,37.0,26.0,29.83,North,360,0.0,0.0,64,0.12,,,-99.99,,2013-02-08 21:11:00,
2013-02-08 14:21:00,37.0,26.0,29.83,North,360,0.0,0.0,63,0.05,,,-99.99,,2013-02-08 21:21:00,
2013-02-08 14:32:00,38.0,28.0,29.83,North,360,0.0,0.0,66,0.02,,,-99.99,,2013-02-08 21:32:00,
2013-02-08 14:41:00,38.0,28.0,29.83,North,360,0.0,0.0,66,0.02,,,-99.99,,2013-02-08 21:41:00,
2013-02-08 14:52:00,38.0,27.0,29.82,North,360,0.0,0.0,65,0.04,,,-99.99,,2013-02-08 21:52:00,
2013-02-08 15:01:00,37.0,25.0,29.82,North,360,0.0,0.0,62,0.05,,,-99.99,,2013-02-08 22:01:00,
2013-02-08 15:11:00,37.0,25.0,29.82,North,360,0.0,0.0,62,0.05,,,-99.99,,2013-02-08 22:11:00,
2013-02-08 15:21:00,38.0,25.0,29.81,North,360,0.0,0.0,60,0.05,,,-99.99,,2013-02-08 22:21:00,
2013-02-08 15:31:00,37.0,20.0,29.81,North,360,0.0,0.0,49,0.09,,,-99.99,,2013-02-08 22:31:00,
2013-02-08 15:41:00,37.0,20.0,29.81,North,360,0.0,0.0,49,0.09,,,-99.99,,2013-02-08 22:41:00,
2013-02-08 15:52:00,37.0,21.0,29.81,North,360,0.0,0.0,51,0.13,,,-99.99,,2013-02-08 22:52:00,
2013-02-08 16:01:00,37.0,21.0,29.81,North,360,0.0,0.0,51,0.13,,,-99.99,,2013-02-08 23:01:00,
2013-02-08 16:11:00,37.0,21.0,29.81,North,360,0.0,0.0,51,0.13,,,-99.99,,2013-02-08 23:11:00,
2013-02-08 16:21:00,36.0,21.0,29.81,North,360,0.0,0.0,55,0.11,,,-99.99,,2013-02-08 23:21:00,
2013-02-08 16:31:00,36.0,22.0,29.81,North,360,0.0,0.0,57,0.07,,,-99.99,,2013-02-08 23:31:00,
2013-02-08 16:41:00,36.0,22.0,29.81,North,360,0.0,0.0,57,0.07,,,-99.99,,2013-02-08 23:41:00,
2013-02-08 16:52:00,36.0,24.0,29.80,North,360,0.0,0.0,61,0.01,,,-99.99,,2013-02-08 23:52:00,
2013-02-08 17:01:00,36.0,23.0,29.81,North,360,0.0,0.0,59,0.01,,,-99.99,,2013-02-09 00:01:00,
2013-02-08 17:11:00,36.0,23.0,29.81,North,360,0.0,0.0,59,0.01,,,-99.99,,2013-02-09 00:11:00,
2013-02-08 17:21:00,37.0,24.0,29.82,North,360,0.0,0.0,60,0.01,,,-99.99,,2013-02-09 00:21:00,
2013-02-08 17:31:00,37.0,9.0,29.81,North,360,0.0,0.0,31,0.01,,,-99.99,,2013-02-09 00:31:00,
2013-02-08 17:41:00,37.0,9.0,29.81,North,360,0.0,0.0,31,0.01,,,-99.99,,2013-02-09 00:41:00,
2013-02-08 17:52:00,37.0,9.0,29.81,North,360,0.0,0.0,31,0.01,,,-99.99,,2013-02-09 00:52:00,
2013-02-08 18:01:00,37.0,9.0,29.81,North,360,0.0,0.0,31,0.01,,,-99.99,,2013-02-09 01:01:00,
2013-02-08 18:11:00,37.0,9.0,29.81,North,360,0.0,0.0,31,0.01,,,-99.99,,2013-02-09 01:11:00,
2013-02-08 18:21:00,34.0,9.0,29.82,North,360,0.0,0.0,34,0.00,,,-99.99,,2013-02-09 01:21:00,
2013-02-08 18:31:00,33.0,8.0,29.81,North,360,0.0,0.0,34,0.00,,,-99.99,,2013-02-09 01:31:00,
2013-02-08 18:41:00,33.0,8.0,29.81,North,360,0.0,0.0,34,0.00,,,-99.99,,2013-02-09 01:41:00,
2013-02-08 18:52:00,32.0,7.0,29.82,North,360,0.0,0.0,34,0.00,,,-99.99,,2013-02-09 01:52:00,
2013-02-08 19:01:00,31.0,5.0,29.82,North,360,0.0,0.0,32,0.00,,,-99.99,,2013-02-09 02:01:00,
2013-02-08 19:11:00,31.0,2.0,29.82,North,360,0.0,0.0,28,0.00,,,-99.99,,2013-02-09 02:11:00,
2013-02-08 19:21:00,31.0,2.0,29.82,North,360,0.0,0.0,28,0.00,,,-99.99,,2013-02-09 02:21:00,
2013-02-08 19:32:00,30.0,2.0,29.82,North,360,0.0,0.0,29,0.00,,,-99.99,,2013-02-09 02:32:00,
2013-02-08 19:41:00,30.0,2.0,29.82,North,360,0.0,0.0,29,0.00,,,-99.99,,2013-02-09 02:41:00,
2013-02-08 19:52:00,30.0,2.0,29.82,North,360,0.0,0.0,30,0.00,,,-99.99,,2013-02-09 02:52:00,
2013-02-08 20:01:00,30.0,2.0,29.82,North,360,0.0,0.0,30,0.00,,,-99.99,,2013-02-09 03:01:00,
2013-02-08 20:21:00,29.0,7.0,29.82,North,360,0.0,0.0,39,0.00,,,-99.99,,2013-02-09 03:21:00,
2013-02-08 20:31:00,29.0,12.0,29.82,North,360,0.0,0.0,49,0.00,,,-99.99,,2013-02-09 03:31:00,
2013-02-08 20:42:00,29.0,12.0,29.82,North,360,0.0,0.0,49,0.00,,,-99.99,,2013-02-09 03:42:00,
2013-02-08 20:52:00,28.0,12.0,29.82,North,360,0.0,0.0,51,0.00,,,-99.99,,2013-02-09 03:52:00,
2013-02-08 21:01:00,27.0,13.0,29.82,North,360,0.0,0.0,55,0.00,,,-99.99,,2013-02-09 04:01:00,
2013-02-08 21:11:00,27.0,13.0,29.82,North,360,0.0,0.0,55,0.00,,,-99.99,,2013-02-09 04:11:00,
2013-02-08 21:22:00,27.0,13.0,29.82,North,360,0.0,0.0,55,0.00,,,-99.99,,2013-02-09 04:22:00,
2013-02-08 21:31:00,27.0,14.0,29.81,North,360,0.0,0.0,58,0.00,,,-99.99,,2013-02-09 04:31:00,
2013-02-08 21:41:00,27.0,14.0,29.81,North,360,0.0,0.0,58,0.00,,,-99.99,,2013-02-09 04:41:00,
2013-02-08 21:52:00,26.0,14.0,29.81,North,360,0.0,0.0,59,0.00,,,-99.99,,2013-02-09 04:52:00,
2013-02-08 22:02:00,25.0,14.0,29.81,North,360,0.0,0.0,62,0.00,,,-99.99,,2013-02-09 05:02:00,
2013-02-08 22:11:00,25.0,14.0,29.81,North,360,0.0,0.0,62,0.00,,,-99.99,,2013-02-09 05:11:00,
2013-02-08 22:22:00,25.0,14.0,29.80,North,360,0.0,0.0,63,0.00,,,-99.99,,2013-02-09 05:22:00,
2013-02-08 22:31:00,25.0,14.0,29.80,North,360,0.0,0.0,63,0.00,,,-99.99,,2013-02-09 05:31:00,
2013-02-08 22:41:00,25.0,14.0,29.80,North,360,0.0,0.0,63,0.00,,,-99.99,,2013-02-09 05:41:00,
2013-02-08 22:52:00,26.0,16.0,29.81,North,360,0.0,0.0,66,0.00,,,-99.99,,2013-02-09 05:52:00,
2013-02-08 23:01:00,26.0,17.0,29.80,North,360,0.0,0.0,68,0.00,,,-99.99,,2013-02-09 06:01:00,
2013-02-08 23:11:00,26.0,17.0,29.80,North,360,0.0,0.0,68,0.00,,,-99.99,,2013-02-09 06:11:00,
2013-02-08 23:21:00,26.0,17.0,29.80,North,360,0.0,0.0,69,0.00,,,-99.99,,2013-02-09 06:21:00,
2013-02-08 23:31:00,26.0,18.0,29.79,North,360,0.0,0.0,71,0.00,,,-99.99,,2013-02-09 06:31:00,
2013-02-08 23:41:00,26.0,18.0,29.79,North,360,0.0,0.0,71,0.00,,,-99.99,,2013-02-09 06:41:00,
2013-02-08 23:51:00,26.0,19.0,29.79,North,360,0.0,0.0,75,0.00,,,-99.99,,2013-02-09 06:51:00,